Location: ????????
(60.4333°N, 46.4710°E)
Time: 18:18:18
(UTC+00:00)

Meteor 1-14 Rocket - Pass Details

Date: 25 November 2020
Orbit: 834 x 919 km, 81.3° (Epoch: 16 January)

Event Time Altitude Azimuth Distance (km) Brightness Sun altitude
Rises 14:49:18 0° 342° (NNW) 3,515 7.5 -19.1°
Reaches altitude 10° 14:51:46 10° 344° (NNW) 2,583 6.8 -19.4°
Maximum altitude 14:57:40 73° 70° (ENE) 955 4.2 -20.1°
Drops below altitude 10° 15:03:38 10° 155° (SSE) 2,608 6.6 -20.8°
Sets 15:06:08 0° 158° (SSE) 3,550 7.3 -21.1°
